SL-16 DEB, 22620

Orbit data source: Space-Track

SL-16 DEB, 22620 is space debris in LEO originally from a launch on Fri, 26 Mar 1993 UTC launched from the Tyuratam Missile And Space Complex (TTMTR). Debris objects in space refer to the collection of defunct objects orbiting the Earth. Examples of debris include non-operational satellites, rocket bodies, and fragments generated from explosions, collisions, or faulty payload assembly.

Loading next visibility...
Identifier
22620, 1993-016AE
Orbit
LEO
Country
Flag of CISCIS
Related business
Manufacturer
Unknown
Mission
Spacecraft
Bus & Motor
Unknown
Mass
Unknown
Launch date (UTC)
1993-03-26 (33 years ago)
Launch vehicle
Unknown
Launch site
Tyuratam Missile And Space Complex (TTMTR)
Object type
Payload
Rocket body
Debris
Shape & HBR
Unknown shape, 0.3 m
Radar Cross Section
Medium (>0.1 m² and <1 m²)

Expand to show TLE details & history
Last TLE update: 11 hours ago

TLE from 11 hours ago
0 SL-16 DEB
1 22620U 93016AE  26255.30757885 -.00000031  00000-0  10377-4 0  9991
2 22620  71.0082  22.2326 0132052  84.9316 299.1708 13.84136893689592
Epoch: 2026-09-12T07:22Z
TLE epoch observation values (Epoch: 2026-09-12T07:22:54.812Z)
Latitude
21.48813°
Longitude
-72.06849°
Altitude
905.157 km
Speed
7.425 km/s
True Right ascension
01h 59m 54s
True Declination
21° 22' 25"
Sunlit
Object was in full shadow at epoch
Visualization orbit readout
Latitude
Unknown
Longitude
Unknown
Altitude
Unknown
Speed
Unknown
Apparent Right ascension
Unknown
Apparent Declination
Unknown
Sunlit
N/A
Visualization observer readout
Local Sidereal Time
10:39:01
Azimuth
Unknown
Elevation
Unknown
Doppler factor
Unknown
Orbital elements
Apogee altitude
1,043.937 km
Perigee altitude
850.472 km
Semi-major axis
7,325.341 km
Eccentricity
0.01321
Inclination
71.0082°
RAAN
22.2326°
Arg. of periapsis
84.9316°
True anomaly
297.83892°
Mean anomaly
299.1708°
Eccentric anomaly
298.50592°
Mean motion
3.4618 °/min
Orbital period
103.99 mins
BSTAR
0.000010377
Loading maneuver chart data...
Computing Atmospheric mass density...
Loading historical data...
Loading historical data...
Loading historical data...
Loading historical data...
Loading historical data...
Loading historical data...
Loading historical data...

Documentation

Showing up to 5 results
|